TimeCDT,TemperatureF,Dew PointF,Humidity,Sea Level PressureIn,VisibilityMPH,Wind Direction,Wind SpeedMPH,Gust SpeedMPH,PrecipitationIn,Events,Conditions,WindDirDegrees,DateUTC
12:30 AM,23.0,19.4,86,29.95,0.8,WNW,33.4,39.1,0.00,Snow,Light Snow,290,2013-03-12 05:30:00
12:49 AM,23.0,19.4,86,29.96,1.0,WNW,29.9,36.8,0.00,Snow,Light Snow,290,2013-03-12 05:49:00
12:54 AM,23.0,19.9,88,30.04,0.8,WNW,31.1,40.3,0.01,Snow,Light Snow,290,2013-03-12 05:54:00
1:38 AM,21.2,19.4,93,29.99,1.5,WNW,26.5,32.2,0.01,Snow,Light Snow,300,2013-03-12 06:38:00
1:54 AM,21.9,19.9,92,30.07,1.8,WNW,25.3,32.2,0.01,Snow,Light Snow,300,2013-03-12 06:54:00
2:28 AM,21.2,19.4,93,30.02,0.8,WNW,26.5,-,0.01,Snow,Light Snow,290,2013-03-12 07:28:00
2:39 AM,21.2,19.4,93,30.02,1.0,WNW,24.2,31.1,0.01,Snow,Light Snow,300,2013-03-12 07:39:00
2:54 AM,21.9,19.0,89,30.11,0.8,WNW,26.5,35.7,0.01,Snow,Light Snow,300,2013-03-12 07:54:00
3:07 AM,21.2,19.4,93,30.04,0.5,WNW,26.5,-,0.01,Fog-Snow,Snow,300,2013-03-12 08:07:00
3:54 AM,21.0,18.0,88,30.14,1.0,WNW,24.2,-,0.02,Snow,Light Snow,300,2013-03-12 08:54:00
4:27 AM,19.4,17.6,93,30.07,0.8,WNW,21.9,-,0.01,Snow,Light Snow,300,2013-03-12 09:27:00
4:35 AM,19.4,17.6,93,30.07,1.2,WNW,21.9,-,0.01,Snow,Light Snow,300,2013-03-12 09:35:00
4:54 AM,19.9,17.1,89,30.16,1.8,WNW,21.9,-,0.01,Snow,Light Snow,300,2013-03-12 09:54:00
5:03 AM,19.4,15.8,86,30.08,2.0,WNW,21.9,-,0.00,Snow,Light Snow,290,2013-03-12 10:03:00
5:10 AM,19.4,15.8,86,30.08,1.2,WNW,23.0,-,0.00,Snow,Light Snow,300,2013-03-12 10:10:00
5:52 AM,19.4,15.8,86,30.10,2.0,WNW,24.2,-,0.00,Snow,Light Snow,300,2013-03-12 10:52:00
5:54 AM,19.0,15.1,85,30.19,2.0,WNW,24.2,-,0.00,Snow,Light Snow,300,2013-03-12 10:54:00
6:22 AM,19.4,15.8,86,30.12,4.0,WNW,20.7,-,0.00,,Overcast,290,2013-03-12 11:22:00
6:42 AM,17.6,15.8,93,30.13,2.5,WNW,24.2,-,0.00,,Overcast,290,2013-03-12 11:42:00
6:54 AM,18.0,15.1,88,30.23,2.5,WNW,21.9,-,0.00,,Overcast,290,2013-03-12 11:54:00
7:17 AM,17.6,14.0,86,30.15,1.8,WNW,21.9,29.9,0.00,Snow,Light Snow,290,2013-03-12 12:17:00
7:24 AM,17.6,14.0,86,30.15,2.5,WNW,20.7,-,0.00,Snow,Light Snow,300,2013-03-12 12:24:00
7:32 AM,17.6,14.0,86,30.15,3.0,WNW,21.9,-,N/A,Snow,Light Snow,300,2013-03-12 12:32:00
7:42 AM,17.6,14.0,86,30.15,2.5,WNW,21.9,-,0.00,Snow,Light Snow,290,2013-03-12 12:42:00
7:54 AM,17.1,12.9,84,30.25,2.0,WNW,21.9,31.1,0.00,Snow,Light Snow,290,2013-03-12 12:54:00
8:28 AM,15.8,12.2,86,30.18,1.2,WNW,20.7,-,0.00,Snow,Light Snow,300,2013-03-12 13:28:00
8:54 AM,15.1,10.9,84,30.29,0.8,WNW,23.0,-,0.00,Snow,Light Snow,300,2013-03-12 13:54:00
9:02 AM,14.0,10.4,86,30.20,1.2,WNW,21.9,-,0.00,Snow,Light Snow,290,2013-03-12 14:02:00
9:16 AM,14.0,10.4,86,30.21,2.0,WNW,20.7,-,0.00,Snow,Light Snow,300,2013-03-12 14:16:00
9:36 AM,14.0,10.4,86,30.21,3.0,WNW,19.6,-,0.00,Snow,Light Snow,300,2013-03-12 14:36:00
9:54 AM,12.9,9.0,84,30.32,4.0,WNW,19.6,-,0.00,,Overcast,300,2013-03-12 14:54:00
10:28 AM,12.2,6.8,79,30.23,6.0,WNW,18.4,-,N/A,,Haze,300,2013-03-12 15:28:00
10:50 AM,12.2,6.8,79,30.24,9.0,NW,18.4,-,N/A,,Scattered Clouds,310,2013-03-12 15:50:00
10:54 AM,14.0,7.0,74,30.34,10.0,WNW,18.4,-,N/A,,Partly Cloudy,300,2013-03-12 15:54:00
11:54 AM,14.0,8.1,77,30.36,10.0,WNW,17.3,-,N/A,,Clear,300,2013-03-12 16:54:00
12:54 PM,16.0,9.0,74,30.37,9.0,NW,17.3,-,N/A,,Clear,310,2013-03-12 17:54:00
1:54 PM,16.0,9.0,74,30.38,10.0,WNW,12.7,-,N/A,,Clear,290,2013-03-12 18:54:00
2:54 PM,17.1,8.1,68,30.37,10.0,WNW,12.7,-,N/A,,Clear,300,2013-03-12 19:54:00
3:54 PM,17.1,9.0,71,30.38,10.0,WNW,11.5,-,N/A,,Clear,290,2013-03-12 20:54:00
4:54 PM,18.0,9.0,68,30.38,10.0,WNW,13.8,-,N/A,,Clear,300,2013-03-12 21:54:00
5:54 PM,17.1,8.1,68,30.37,10.0,WNW,9.2,-,N/A,,Clear,300,2013-03-12 22:54:00
6:54 PM,15.1,6.1,68,30.37,10.0,NW,3.5,-,N/A,,Clear,310,2013-03-12 23:54:00
7:54 PM,14.0,5.0,67,30.37,10.0,West,3.5,-,N/A,,Clear,280,2013-03-13 00:54:00
8:54 PM,10.9,3.9,73,30.38,10.0,SW,3.5,-,N/A,,Clear,230,2013-03-13 01:54:00
9:54 PM,7.0,1.9,80,30.38,10.0,Calm,Calm,-,N/A,,Clear,0,2013-03-13 02:54:00
10:54 PM,5.0,1.0,84,30.39,10.0,Calm,Calm,-,N/A,,Clear,0,2013-03-13 03:54:00
11:54 PM,1.9,-0.9,88,30.39,10.0,Calm,Calm,-,N/A,,Clear,0,2013-03-13 04:54:00